FW6626 Weather Reports


Display with metric or nautical units.
time (UTC)temp
F
wind
direction
speed
MPH
gust
MPH
rain 1hr
in
rain 24hr
in
rain mn
in
humidity
%
barometer
mb
20260831023059 73 230 2.0 4.0 0.00 0.00 0.00 81 1011.9
20260831021558 74 264 1.0 5.0 0.00 0.00 0.00 81 1011.7
20260831020056 74 233 2.0 7.0 0.00 0.00 0.00 80 1011.6
20260831014604 74 244 1.0 8.0 0.00 0.00 0.00 81 1011.6
20260831013059 75 246 2.0 8.0 0.00 0.00 0.00 80 1011.5
20260831011558 76 247 4.0 9.0 0.00 0.00 0.00 78 1011.6
20260831010113 77 241 3.0 10.0 0.00 0.00 0.00 75 1011.7
20260831004606 77 237 3.0 10.0 0.00 0.00 0.00 74 1011.6
20260831003107 78 360 4.0 9.0 0.00 0.00 0.00 74 1011.8
20260831001604 78 360 5.0 11.0 0.00 0.00 0.00 74 1011.8
20260830234606 78 220 4.0 13.0 0.00 0.00 0.00 72 1011.7
20260830233104 79 252 6.0 11.0 0.00 0.00 0.00 71 1011.8
20260830231611 80 360 5.0 10.0 0.00 0.00 0.00 71 1011.9
20260830230058 80 253 4.0 11.0 0.00 0.00 0.00 72 1011.8
20260830224607 80 228 4.0 10.0 0.00 0.00 0.00 70 1012.0
20260830223107 79 244 6.0 13.0 0.00 0.00 0.00 72 1012.2
20260830221601 80 261 5.0 12.0 0.00 0.00 0.00 70 1012.5
20260830220100 79 237 7.0 10.0 0.00 0.00 0.00 71 1012.5
20260830214603 80 233 6.0 13.0 0.00 0.00 0.00 70 1012.4
20260830213101 80 274 4.0 14.0 0.00 0.00 0.00 70 1012.7
20260830211558 80 360 5.0 12.0 0.00 0.00 0.00 70 1012.7
20260830210119 79 360 6.0 14.0 0.00 0.00 0.00 71 1012.9
20260830204611 80 360 6.0 13.0 0.00 0.00 0.00 71 1013.1
20260830203059 79 360 6.0 13.0 0.00 0.00 0.00 72 1013.1
20260830201559 80 360 6.0 11.0 0.00 0.00 0.00 71 1013.1
20260830200112 80 360 6.0 14.0 0.00 0.00 0.00 71 1013.1
20260830194645 80 249 5.0 15.0 0.00 0.00 0.00 70 1013.2
20260830193102 80 275 5.0 12.0 0.00 0.00 0.00 70 1013.4
20260830191602 81 360 5.0 11.0 0.00 0.00 0.00 69 1013.5
20260830184556 80 360 6.0 13.0 0.00 0.00 0.00 69 1013.6
20260830183114 81 203 5.0 10.0 0.00 0.00 0.00 69 1013.6
20260830181602 81 360 5.0 9.0 0.00 0.00 0.00 68 1013.4
20260830180108 81 244 3.0 10.0 0.00 0.00 0.00 68 1013.5
20260830174558 80 223 5.0 11.0 0.00 0.00 0.00 72 1013.4
20260830173111 80 211 5.0 10.0 0.00 0.00 0.00 69 1013.3
20260830171603 80 205 3.0 10.0 0.00 0.00 0.00 71 1013.2
20260830170101 80 360 3.0 10.0 0.00 0.00 0.00 70 1013.1
20260830164608 80 240 4.0 10.0 0.00 0.00 0.00 71 1013.2
20260830163104 83 144 1.0 8.0 0.00 0.00 0.00 64 1013.1
20260830161626 82 128 4.0 10.0 0.00 0.00 0.00 67 1013.1
20260830160103 81 133 5.0 8.0 0.00 0.00 0.00 69 1013.1
20260830154610 81 164 5.0 7.0 0.00 0.00 0.00 69 1013.0
20260830153105 80 132 2.0 9.0 0.00 0.00 0.00 70 1012.9
20260830151602 78 117 5.0 9.0 0.00 0.00 0.00 74 1013.0
20260830150120 76 163 3.0 7.0 0.00 0.00 0.00 78 1013.0
20260830144556 75 138 3.0 8.0 0.00 0.00 0.00 80 1013.0
20260830143104 74 114 2.0 6.0 0.00 0.00 0.00 82 1012.9
20260830141603 73 120 2.0 5.0 0.00 0.00 0.00 84 1012.8
20260830140104 72 144 3.0 6.0 0.00 0.00 0.00 85 1012.8
20260830134601 72 151 1.0 6.0 0.00 0.00 0.00 85 1012.6
20260830133058 72 155 2.0 5.0 0.00 0.00 0.00 85 1012.5
20260830131607 72 131 1.0 7.0 0.00 0.00 0.00 85 1012.4
20260830124600 72 138 3.0 10.0 0.00 0.00 0.00 86 1012.1
20260830123058 72 137 5.0 9.0 0.00 0.00 0.00 87 1012.1
20260830121600 72 138 4.0 9.0 0.00 0.00 0.00 87 1012.1
20260830120059 72 111 7.0 10.0 0.00 0.00 0.00 87 1012.1
20260830114604 72 145 5.0 10.0 0.00 0.00 0.00 88 1012.1
20260830113103 72 142 3.0 6.0 0.00 0.00 0.00 88 1012.1
20260830111556 72 138 2.0 4.0 0.00 0.00 0.00 89 1012.1
20260830110101 72 107 0.0 6.0 0.00 0.00 0.00 89 1012.1
20260830104604 72 132 0.0 3.0 0.00 0.00 0.00 89 1012.1
20260830103102 72 134 3.0 5.0 0.00 0.00 0.00 89 1011.9
20260830101559 72 132 2.0 4.0 0.00 0.00 0.00 89 1011.8
20260830100104 72 144 2.0 5.0 0.00 0.00 0.00 89 1011.8
20260830094604 72 140 2.0 4.0 0.00 0.00 0.00 89 1011.7
20260830093057 72 146 2.0 5.0 0.00 0.00 0.00 89 1011.8
20260830091606 72 147 2.0 5.0 0.00 0.00 0.00 89 1011.9
20260830084559 72 191 1.0 3.0 0.00 0.00 0.00 89 1011.8
20260830083107 72 192 1.0 3.0 0.00 0.00 0.00 89 1011.8
20260830081602 72 195 1.0 3.0 0.00 0.00 0.00 89 1011.8
20260830080100 72 196 1.0 3.0 0.00 0.00 0.00 89 1012.0
20260830074608 72 197 1.0 3.0 0.00 0.00 0.00 89 1012.0
20260830073116 72 207 0.0 0.0 0.00 0.00 0.00 88 1012.0
20260830071605 73 0 0.0 1.0 0.00 0.00 0.00 88 1012.1
20260830070100 73 207 1.0 3.0 0.00 0.00 0.00 88 1012.2
20260830064632 73 208 2.0 3.0 0.00 0.00 0.00 88 1012.3
20260830063104 73 212 0.0 2.0 0.00 0.00 0.00 88 1012.0
20260830061614 73 0 1.0 3.0 0.00 0.00 0.00 88 1012.0
20260830060059 73 213 1.0 3.0 0.00 0.00 0.00 88 1012.1
20260830054606 73 214 1.0 3.0 0.00 0.00 0.00 87 1012.0
20260830053101 74 217 2.0 3.0 0.00 0.00 0.00 88 1012.1
20260830051600 74 229 1.0 3.0 0.00 0.00 0.00 87 1012.0
20260830050058 74 235 1.0 2.0 0.00 0.00 0.00 87 1012.0
20260830044616 74 0 0.0 3.0 0.00 0.00 0.00 87 1012.0
20260830043058 75 234 0.0 4.0 0.00 0.00 0.00 86 1012.0
20260830041627 75 0 0.0 3.0 0.00 0.00 0.00 86 1011.9
20260830040110 75 0 2.0 4.0 0.00 0.00 0.00 86 1011.8
20260830034559 75 236 1.0 5.0 0.00 0.00 0.00 86 1011.5
20260830033111 75 220 0.0 3.0 0.00 0.00 0.00 87 1011.5
20260830031612 75 219 0.0 3.0 0.00 0.00 0.00 86 1011.2
20260830030103 75 209 2.0 4.0 0.00 0.00 0.00 86 1010.8
20260830024640 75 173 2.0 5.0 0.00 0.00 0.00 86 1010.8